owner,sensor,date,latitude,longitude,vertical_datum,sea_water_temperature,qcFlag 
TABS,ioos:station:wmo:42043:1,2014-04-17T00:00:00Z,28.9818,-94.9186,-2.0,17.73,11111222 
TABS,ioos:station:wmo:42043:1,2014-04-17T00:30:00Z,28.9818,-94.9186,-2.0,17.7,11111222 
TABS,ioos:station:wmo:42043:1,2014-04-17T01:00:00Z,28.9818,-94.9186,-2.0,17.74,11111222 
TABS,ioos:station:wmo:42043:1,2014-04-17T01:30:00Z,28.9818,-94.9186,-2.0,17.73,11111222 
TABS,ioos:station:wmo:42043:1,2014-04-17T02:00:00Z,28.9818,-94.9186,-2.0,17.7,11111222 
TABS,ioos:station:wmo:42043:1,2014-04-17T02:30:00Z,28.9818,-94.9186,-2.0,17.66,11111222 
TABS,ioos:station:wmo:42043:1,2014-04-17T03:00:00Z,28.9818,-94.9186,-2.0,17.62,11111222 
TABS,ioos:station:wmo:42043:1,2014-04-17T03:30:00Z,28.9818,-94.9186,-2.0,17.63,11111222 
TABS,ioos:station:wmo:42043:1,2014-04-17T04:00:00Z,28.9818,-94.9186,-2.0,17.62,11111222 
TABS,ioos:station:wmo:42043:1,2014-04-17T04:30:00Z,28.9818,-94.9186,-2.0,17.61,11111222 
TABS,ioos:station:wmo:42043:1,2014-04-17T05:00:00Z,28.9818,-94.9186,-2.0,17.59,11111222 
TABS,ioos:station:wmo:42043:1,2014-04-17T05:30:00Z,28.9818,-94.9186,-2.0,17.57,11111222 
TABS,ioos:station:wmo:42043:1,2014-04-17T06:00:00Z,28.9818,-94.9186,-2.0,17.55,11111222 
TABS,ioos:station:wmo:42043:1,2014-04-17T06:30:00Z,28.9818,-94.9186,-2.0,17.54,11111222 
TABS,ioos:station:wmo:42043:1,2014-04-17T07:00:00Z,28.9818,-94.9186,-2.0,17.55,11111222 
TABS,ioos:station:wmo:42043:1,2014-04-17T07:30:00Z,28.9818,-94.9186,-2.0,17.56,11111222 
TABS,ioos:station:wmo:42043:1,2014-04-17T08:00:00Z,28.9818,-94.9186,-2.0,17.58,11111222 
TABS,ioos:station:wmo:42043:1,2014-04-17T08:30:00Z,28.9818,-94.9186,-2.0,17.58,11111222 
TABS,ioos:station:wmo:42043:1,2014-04-17T09:00:00Z,28.9818,-94.9186,-2.0,17.58,11111222 
TABS,ioos:station:wmo:42043:1,2014-04-17T09:30:00Z,28.9818,-94.9186,-2.0,17.56,11111222 
TABS,ioos:station:wmo:42043:1,2014-04-17T10:00:00Z,28.9818,-94.9186,-2.0,17.54,11111222 
TABS,ioos:station:wmo:42043:1,2014-04-17T10:30:00Z,28.9818,-94.9186,-2.0,17.55,11111222 
TABS,ioos:station:wmo:42043:1,2014-04-17T11:00:00Z,28.9818,-94.9186,-2.0,17.54,11111222 
TABS,ioos:station:wmo:42043:1,2014-04-17T11:30:00Z,28.9818,-94.9186,-2.0,17.53,11111222 
TABS,ioos:station:wmo:42043:1,2014-04-17T12:00:00Z,28.9818,-94.9186,-2.0,17.52,11111222 
TABS,ioos:station:wmo:42043:1,2014-04-17T12:30:00Z,28.9818,-94.9186,-2.0,17.51,11111222 
TABS,ioos:station:wmo:42043:1,2014-04-17T13:00:00Z,28.9818,-94.9186,-2.0,17.5,11111222 
TABS,ioos:station:wmo:42043:1,2014-04-17T13:30:00Z,28.9818,-94.9186,-2.0,17.48,11111222 
TABS,ioos:station:wmo:42043:1,2014-04-17T14:00:00Z,28.9818,-94.9186,-2.0,17.47,11111222 
TABS,ioos:station:wmo:42043:1,2014-04-17T14:30:00Z,28.9818,-94.9186,-2.0,17.43,11111222 
TABS,ioos:station:wmo:42043:1,2014-04-17T15:00:00Z,28.9818,-94.9186,-2.0,17.43,11111222 
TABS,ioos:station:wmo:42043:1,2014-04-17T15:30:00Z,28.9818,-94.9186,-2.0,17.43,11111222 
TABS,ioos:station:wmo:42043:1,2014-04-17T16:00:00Z,28.9818,-94.9186,-2.0,17.42,11111222 
TABS,ioos:station:wmo:42043:1,2014-04-17T16:30:00Z,28.9818,-94.9186,-2.0,17.42,11111222 
TABS,ioos:station:wmo:42043:1,2014-04-17T17:00:00Z,28.9818,-94.9186,-2.0,17.43,11111222 
TABS,ioos:station:wmo:42043:1,2014-04-17T17:30:00Z,28.9818,-94.9186,-2.0,17.43,11111222 
TABS,ioos:station:wmo:42043:1,2014-04-17T18:00:00Z,28.9818,-94.9186,-2.0,17.42,11111222 
TABS,ioos:station:wmo:42043:1,2014-04-17T18:30:00Z,28.9818,-94.9186,-2.0,17.42,11111222 
TABS,ioos:station:wmo:42043:1,2014-04-17T19:00:00Z,28.9818,-94.9186,-2.0,17.41,11111222 
TABS,ioos:station:wmo:42043:1,2014-04-17T19:30:00Z,28.9818,-94.9186,-2.0,17.41,11111222 
TABS,ioos:station:wmo:42043:1,2014-04-17T20:00:00Z,28.9818,-94.9186,-2.0,17.41,11111222 
TABS,ioos:station:wmo:42043:1,2014-04-17T20:30:00Z,28.9818,-94.9186,-2.0,17.42,11111222 
TABS,ioos:station:wmo:42043:1,2014-04-17T21:00:00Z,28.9818,-94.9186,-2.0,17.45,11111222 
TABS,ioos:station:wmo:42043:1,2014-04-17T21:30:00Z,28.9818,-94.9186,-2.0,17.46,11111222 
TABS,ioos:station:wmo:42043:1,2014-04-17T22:00:00Z,28.9818,-94.9186,-2.0,17.47,11111222 
TABS,ioos:station:wmo:42043:1,2014-04-17T22:30:00Z,28.9818,-94.9186,-2.0,17.47,11111222 
TABS,ioos:station:wmo:42043:1,2014-04-17T23:00:00Z,28.9818,-94.9186,-2.0,17.47,11111222 
TABS,ioos:station:wmo:42043:1,2014-04-17T23:30:00Z,28.9818,-94.9186,-2.0,17.46,11111222 
TABS,ioos:station:wmo:42043:1,2014-04-18T00:00:00Z,28.9818,-94.9186,-2.0,17.45,11111222 
TABS,ioos:station:wmo:42043:1,2014-04-18T00:30:00Z,28.9818,-94.9186,-2.0,17.45,11111222 
TABS,ioos:station:wmo:42043:1,2014-04-18T01:00:00Z,28.9818,-94.9186,-2.0,17.43,11111222 
TABS,ioos:station:wmo:42043:1,2014-04-18T01:30:00Z,28.9818,-94.9186,-2.0,17.43,11111222 
TABS,ioos:station:wmo:42043:1,2014-04-18T02:00:00Z,28.9818,-94.9186,-2.0,17.43,11111222 
TABS,ioos:station:wmo:42043:1,2014-04-18T02:30:00Z,28.9818,-94.9186,-2.0,17.42,11111222 
TABS,ioos:station:wmo:42043:1,2014-04-18T03:00:00Z,28.9818,-94.9186,-2.0,17.42,11111222 
TABS,ioos:station:wmo:42043:1,2014-04-18T03:30:00Z,28.9818,-94.9186,-2.0,17.4,11111222 
TABS,ioos:station:wmo:42043:1,2014-04-18T04:00:00Z,28.9818,-94.9186,-2.0,17.38,11111222 
TABS,ioos:station:wmo:42043:1,2014-04-18T04:30:00Z,28.9818,-94.9186,-2.0,17.35,11111222 
TABS,ioos:station:wmo:42043:1,2014-04-18T05:00:00Z,28.9818,-94.9186,-2.0,17.34,11111222 
TABS,ioos:station:wmo:42043:1,2014-04-18T05:30:00Z,28.9818,-94.9186,-2.0,17.34,11111222 
TABS,ioos:station:wmo:42043:1,2014-04-18T06:00:00Z,28.9818,-94.9186,-2.0,17.35,11111222 
TABS,ioos:station:wmo:42043:1,2014-04-18T06:30:00Z,28.9818,-94.9186,-2.0,17.36,11111222 
TABS,ioos:station:wmo:42043:1,2014-04-18T07:00:00Z,28.9818,-94.9186,-2.0,17.37,11111222 
TABS,ioos:station:wmo:42043:1,2014-04-18T07:30:00Z,28.9818,-94.9186,-2.0,17.42,11111222 
TABS,ioos:station:wmo:42043:1,2014-04-18T08:00:00Z,28.9818,-94.9186,-2.0,17.42,11111222 
TABS,ioos:station:wmo:42043:1,2014-04-18T08:30:00Z,28.9818,-94.9186,-2.0,17.42,11111222 
TABS,ioos:station:wmo:42043:1,2014-04-18T09:00:00Z,28.9818,-94.9186,-2.0,17.42,11111222 
TABS,ioos:station:wmo:42043:1,2014-04-18T09:30:00Z,28.9818,-94.9186,-2.0,17.42,11111222 
TABS,ioos:station:wmo:42043:1,2014-04-18T10:00:00Z,28.9818,-94.9186,-2.0,17.5,11111222 
TABS,ioos:station:wmo:42043:1,2014-04-18T10:30:00Z,28.9818,-94.9186,-2.0,17.48,11111222 
TABS,ioos:station:wmo:42043:1,2014-04-18T11:00:00Z,28.9818,-94.9186,-2.0,17.48,11111222 
TABS,ioos:station:wmo:42043:1,2014-04-18T11:30:00Z,28.9818,-94.9186,-2.0,17.47,11111222 
TABS,ioos:station:wmo:42043:1,2014-04-18T12:00:00Z,28.9818,-94.9186,-2.0,17.48,11111222 
TABS,ioos:station:wmo:42043:1,2014-04-18T12:30:00Z,28.9818,-94.9186,-2.0,17.48,11111222 
TABS,ioos:station:wmo:42043:1,2014-04-18T13:00:00Z,28.9818,-94.9186,-2.0,17.47,11111222 
TABS,ioos:station:wmo:42043:1,2014-04-18T13:30:00Z,28.9818,-94.9186,-2.0,17.47,11111222 
TABS,ioos:station:wmo:42043:1,2014-04-18T14:00:00Z,28.9818,-94.9186,-2.0,17.5,11111222 
TABS,ioos:station:wmo:42043:1,2014-04-18T14:30:00Z,28.9818,-94.9186,-2.0,17.53,11111222 
TABS,ioos:station:wmo:42043:1,2014-04-18T15:00:00Z,28.9818,-94.9186,-2.0,17.56,11111222 
TABS,ioos:station:wmo:42043:1,2014-04-18T15:30:00Z,28.9818,-94.9186,-2.0,17.57,11111222 
TABS,ioos:station:wmo:42043:1,2014-04-18T16:00:00Z,28.9818,-94.9186,-2.0,17.57,11111222 
TABS,ioos:station:wmo:42043:1,2014-04-18T16:30:00Z,28.9818,-94.9186,-2.0,17.54,11111222 
TABS,ioos:station:wmo:42043:1,2014-04-18T17:00:00Z,28.9818,-94.9186,-2.0,17.6,11111222 
TABS,ioos:station:wmo:42043:1,2014-04-18T17:30:00Z,28.9818,-94.9186,-2.0,17.68,11111222 
TABS,ioos:station:wmo:42043:1,2014-04-18T18:00:00Z,28.9818,-94.9186,-2.0,17.73,11111222 
TABS,ioos:station:wmo:42043:1,2014-04-18T18:30:00Z,28.9818,-94.9186,-2.0,17.73,11111222 
TABS,ioos:station:wmo:42043:1,2014-04-18T19:00:00Z,28.9818,-94.9186,-2.0,17.77,11111222 
TABS,ioos:station:wmo:42043:1,2014-04-18T19:30:00Z,28.9818,-94.9186,-2.0,17.76,11111222 
TABS,ioos:station:wmo:42043:1,2014-04-18T20:00:00Z,28.9818,-94.9186,-2.0,17.81,11111222 
TABS,ioos:station:wmo:42043:1,2014-04-18T20:30:00Z,28.9818,-94.9186,-2.0,17.82,11111222 
TABS,ioos:station:wmo:42043:1,2014-04-18T21:00:00Z,28.9818,-94.9186,-2.0,18.01,11111222 
TABS,ioos:station:wmo:42043:1,2014-04-18T21:30:00Z,28.9818,-94.9186,-2.0,18.11,11111222 
TABS,ioos:station:wmo:42043:1,2014-04-18T22:00:00Z,28.9818,-94.9186,-2.0,18.02,11111222 
TABS,ioos:station:wmo:42043:1,2014-04-18T22:30:00Z,28.9818,-94.9186,-2.0,18.03,11111222 
TABS,ioos:station:wmo:42043:1,2014-04-18T23:00:00Z,28.9818,-94.9186,-2.0,18.25,11111222 
TABS,ioos:station:wmo:42043:1,2014-04-18T23:30:00Z,28.9818,-94.9186,-2.0,18.4,11111222 
TABS,ioos:station:wmo:42043:1,2014-04-19T00:00:00Z,28.9818,-94.9186,-2.0,18.41,11111222 
TABS,ioos:station:wmo:42043:1,2014-04-19T00:30:00Z,28.9818,-94.9186,-2.0,18.41,11111222 
TABS,ioos:station:wmo:42043:1,2014-04-19T01:00:00Z,28.9818,-94.9186,-2.0,18.53,11111222 
TABS,ioos:station:wmo:42043:1,2014-04-19T01:30:00Z,28.9818,-94.9186,-2.0,18.51,11111222 
TABS,ioos:station:wmo:42043:1,2014-04-19T02:00:00Z,28.9818,-94.9186,-2.0,18.51,11111222 
TABS,ioos:station:wmo:42043:1,2014-04-19T02:30:00Z,28.9818,-94.9186,-2.0,18.66,11111222 
TABS,ioos:station:wmo:42043:1,2014-04-19T03:00:00Z,28.9818,-94.9186,-2.0,18.44,11111222 
TABS,ioos:station:wmo:42043:1,2014-04-19T03:30:00Z,28.9818,-94.9186,-2.0,18.51,11111222 
TABS,ioos:station:wmo:42043:1,2014-04-19T04:00:00Z,28.9818,-94.9186,-2.0,18.54,11111222 
TABS,ioos:station:wmo:42043:1,2014-04-19T04:30:00Z,28.9818,-94.9186,-2.0,18.54,11111222 
TABS,ioos:station:wmo:42043:1,2014-04-19T05:00:00Z,28.9818,-94.9186,-2.0,18.53,11111222 
TABS,ioos:station:wmo:42043:1,2014-04-19T05:30:00Z,28.9818,-94.9186,-2.0,18.51,11111222 
TABS,ioos:station:wmo:42043:1,2014-04-19T06:00:00Z,28.9818,-94.9186,-2.0,18.49,11111222 
TABS,ioos:station:wmo:42043:1,2014-04-19T06:30:00Z,28.9818,-94.9186,-2.0,18.47,11111222 
TABS,ioos:station:wmo:42043:1,2014-04-19T07:00:00Z,28.9818,-94.9186,-2.0,18.43,11111222 
TABS,ioos:station:wmo:42043:1,2014-04-19T07:30:00Z,28.9818,-94.9186,-2.0,18.36,11111222 
TABS,ioos:station:wmo:42043:1,2014-04-19T08:00:00Z,28.9818,-94.9186,-2.0,18.32,11111222 
TABS,ioos:station:wmo:42043:1,2014-04-19T08:30:00Z,28.9818,-94.9186,-2.0,18.21,11111222 
TABS,ioos:station:wmo:42043:1,2014-04-19T09:00:00Z,28.9818,-94.9186,-2.0,18.16,11111222 
TABS,ioos:station:wmo:42043:1,2014-04-19T09:30:00Z,28.9818,-94.9186,-2.0,18.15,11111222 
TABS,ioos:station:wmo:42043:1,2014-04-19T10:00:00Z,28.9818,-94.9186,-2.0,18.08,11111222 
TABS,ioos:station:wmo:42043:1,2014-04-19T10:30:00Z,28.9818,-94.9186,-2.0,18.07,11111222 
TABS,ioos:station:wmo:42043:1,2014-04-19T11:00:00Z,28.9818,-94.9186,-2.0,18.07,11111222 
TABS,ioos:station:wmo:42043:1,2014-04-19T11:30:00Z,28.9818,-94.9186,-2.0,18.07,11111222 
TABS,ioos:station:wmo:42043:1,2014-04-19T12:00:00Z,28.9818,-94.9186,-2.0,18.05,11111222 
TABS,ioos:station:wmo:42043:1,2014-04-19T12:30:00Z,28.9818,-94.9186,-2.0,18.06,11111222 
TABS,ioos:station:wmo:42043:1,2014-04-19T13:00:00Z,28.9818,-94.9186,-2.0,18.1,11111222 
TABS,ioos:station:wmo:42043:1,2014-04-19T13:30:00Z,28.9818,-94.9186,-2.0,18.16,11111222 
TABS,ioos:station:wmo:42043:1,2014-04-19T14:00:00Z,28.9818,-94.9186,-2.0,18.2,11111222 
TABS,ioos:station:wmo:42043:1,2014-04-19T14:30:00Z,28.9818,-94.9186,-2.0,18.2,11111222 
TABS,ioos:station:wmo:42043:1,2014-04-19T15:00:00Z,28.9818,-94.9186,-2.0,18.03,11111222 
TABS,ioos:station:wmo:42043:1,2014-04-19T15:30:00Z,28.9818,-94.9186,-2.0,17.8,11111222 
TABS,ioos:station:wmo:42043:1,2014-04-19T16:00:00Z,28.9818,-94.9186,-2.0,17.76,11111222 
TABS,ioos:station:wmo:42043:1,2014-04-19T16:30:00Z,28.9818,-94.9186,-2.0,17.89,11111222 
TABS,ioos:station:wmo:42043:1,2014-04-19T17:00:00Z,28.9818,-94.9186,-2.0,17.93,11111222 
TABS,ioos:station:wmo:42043:1,2014-04-19T17:30:00Z,28.9818,-94.9186,-2.0,17.94,11111222 
TABS,ioos:station:wmo:42043:1,2014-04-19T18:00:00Z,28.9818,-94.9186,-2.0,18.02,11111222 
TABS,ioos:station:wmo:42043:1,2014-04-19T18:30:00Z,28.9818,-94.9186,-2.0,18.29,11111222 
TABS,ioos:station:wmo:42043:1,2014-04-19T19:00:00Z,28.9818,-94.9186,-2.0,18.35,11111222 
TABS,ioos:station:wmo:42043:1,2014-04-19T19:30:00Z,28.9818,-94.9186,-2.0,18.44,11111222 
TABS,ioos:station:wmo:42043:1,2014-04-19T20:00:00Z,28.9818,-94.9186,-2.0,18.41,11111222 
TABS,ioos:station:wmo:42043:1,2014-04-19T20:30:00Z,28.9818,-94.9186,-2.0,18.54,11111222 
TABS,ioos:station:wmo:42043:1,2014-04-19T21:00:00Z,28.9818,-94.9186,-2.0,18.67,11111222 
TABS,ioos:station:wmo:42043:1,2014-04-19T21:30:00Z,28.9818,-94.9186,-2.0,18.52,11111222 
TABS,ioos:station:wmo:42043:1,2014-04-19T22:00:00Z,28.9818,-94.9186,-2.0,18.46,11111222 
TABS,ioos:station:wmo:42043:1,2014-04-19T22:30:00Z,28.9818,-94.9186,-2.0,18.42,11111222 
TABS,ioos:station:wmo:42043:1,2014-04-19T23:00:00Z,28.9818,-94.9186,-2.0,18.4,11111222 
TABS,ioos:station:wmo:42043:1,2014-04-19T23:30:00Z,28.9818,-94.9186,-2.0,18.32,11111222 
TABS,ioos:station:wmo:42043:1,2014-04-20T00:00:00Z,28.9818,-94.9186,-2.0,18.4,11111222 
TABS,ioos:station:wmo:42043:1,2014-04-20T00:30:00Z,28.9818,-94.9186,-2.0,18.29,11111222 
TABS,ioos:station:wmo:42043:1,2014-04-20T01:00:00Z,28.9818,-94.9186,-2.0,18.28,11111222 
TABS,ioos:station:wmo:42043:1,2014-04-20T01:30:00Z,28.9818,-94.9186,-2.0,18.21,11111222 
TABS,ioos:station:wmo:42043:1,2014-04-20T02:00:00Z,28.9818,-94.9186,-2.0,18.22,11111222 
TABS,ioos:station:wmo:42043:1,2014-04-20T02:30:00Z,28.9818,-94.9186,-2.0,18.18,11111222 
TABS,ioos:station:wmo:42043:1,2014-04-20T03:00:00Z,28.9818,-94.9186,-2.0,18.15,11111222 
TABS,ioos:station:wmo:42043:1,2014-04-20T03:30:00Z,28.9818,-94.9186,-2.0,18.19,11111222 
TABS,ioos:station:wmo:42043:1,2014-04-20T04:00:00Z,28.9818,-94.9186,-2.0,18.08,11111222 
TABS,ioos:station:wmo:42043:1,2014-04-20T04:30:00Z,28.9818,-94.9186,-2.0,18.07,11111222 
TABS,ioos:station:wmo:42043:1,2014-04-20T05:00:00Z,28.9818,-94.9186,-2.0,18.0,11111222 
TABS,ioos:station:wmo:42043:1,2014-04-20T05:30:00Z,28.9818,-94.9186,-2.0,17.98,11111222 
TABS,ioos:station:wmo:42043:1,2014-04-20T06:00:00Z,28.9818,-94.9186,-2.0,17.91,11111222 
TABS,ioos:station:wmo:42043:1,2014-04-20T06:30:00Z,28.9818,-94.9186,-2.0,17.88,11111222 
TABS,ioos:station:wmo:42043:1,2014-04-20T07:00:00Z,28.9818,-94.9186,-2.0,17.94,11111222 
TABS,ioos:station:wmo:42043:1,2014-04-20T07:30:00Z,28.9818,-94.9186,-2.0,18.0,11111222 
TABS,ioos:station:wmo:42043:1,2014-04-20T08:00:00Z,28.9818,-94.9186,-2.0,17.84,11111222 
TABS,ioos:station:wmo:42043:1,2014-04-20T08:30:00Z,28.9818,-94.9186,-2.0,17.95,11111222 
TABS,ioos:station:wmo:42043:1,2014-04-20T09:00:00Z,28.9818,-94.9186,-2.0,17.92,11111222 
TABS,ioos:station:wmo:42043:1,2014-04-20T09:30:00Z,28.9818,-94.9186,-2.0,17.93,11111222 
TABS,ioos:station:wmo:42043:1,2014-04-20T10:00:00Z,28.9818,-94.9186,-2.0,17.89,11111222 
TABS,ioos:station:wmo:42043:1,2014-04-20T10:30:00Z,28.9818,-94.9186,-2.0,17.83,11111222 
TABS,ioos:station:wmo:42043:1,2014-04-20T11:00:00Z,28.9818,-94.9186,-2.0,17.89,11111222 
TABS,ioos:station:wmo:42043:1,2014-04-20T11:30:00Z,28.9818,-94.9186,-2.0,17.94,11111222 
TABS,ioos:station:wmo:42043:1,2014-04-20T12:00:00Z,28.9818,-94.9186,-2.0,18.04,11111222 
TABS,ioos:station:wmo:42043:1,2014-04-20T12:30:00Z,28.9818,-94.9186,-2.0,17.93,11111222 
TABS,ioos:station:wmo:42043:1,2014-04-20T13:00:00Z,28.9818,-94.9186,-2.0,18.01,11111222 
TABS,ioos:station:wmo:42043:1,2014-04-20T13:30:00Z,28.9818,-94.9186,-2.0,17.92,11111222 
TABS,ioos:station:wmo:42043:1,2014-04-20T14:00:00Z,28.9818,-94.9186,-2.0,18.05,11111222 
TABS,ioos:station:wmo:42043:1,2014-04-20T14:30:00Z,28.9818,-94.9186,-2.0,17.84,11111222 
TABS,ioos:station:wmo:42043:1,2014-04-20T15:00:00Z,28.9818,-94.9186,-2.0,17.8,11111222 
TABS,ioos:station:wmo:42043:1,2014-04-20T15:30:00Z,28.9818,-94.9186,-2.0,18.01,11111222 
TABS,ioos:station:wmo:42043:1,2014-04-20T16:00:00Z,28.9818,-94.9186,-2.0,17.96,11111222 
TABS,ioos:station:wmo:42043:1,2014-04-20T16:30:00Z,28.9818,-94.9186,-2.0,17.98,11111222 
TABS,ioos:station:wmo:42043:1,2014-04-20T17:00:00Z,28.9818,-94.9186,-2.0,17.87,11111222 
TABS,ioos:station:wmo:42043:1,2014-04-20T17:30:00Z,28.9818,-94.9186,-2.0,17.83,11111222 
TABS,ioos:station:wmo:42043:1,2014-04-20T18:00:00Z,28.9818,-94.9186,-2.0,18.06,11111222 
TABS,ioos:station:wmo:42043:1,2014-04-20T18:30:00Z,28.9818,-94.9186,-2.0,18.3,11111222 
TABS,ioos:station:wmo:42043:1,2014-04-20T19:00:00Z,28.9818,-94.9186,-2.0,18.29,11111222 
TABS,ioos:station:wmo:42043:1,2014-04-20T19:30:00Z,28.9818,-94.9186,-2.0,18.48,11111222 
TABS,ioos:station:wmo:42043:1,2014-04-20T20:00:00Z,28.9818,-94.9186,-2.0,18.61,11111222 
TABS,ioos:station:wmo:42043:1,2014-04-20T20:30:00Z,28.9818,-94.9186,-2.0,18.65,11111222 
TABS,ioos:station:wmo:42043:1,2014-04-20T21:00:00Z,28.9818,-94.9186,-2.0,18.68,11111222 
TABS,ioos:station:wmo:42043:1,2014-04-20T21:30:00Z,28.9818,-94.9186,-2.0,18.66,11111222 
TABS,ioos:station:wmo:42043:1,2014-04-20T22:00:00Z,28.9818,-94.9186,-2.0,18.66,11111222 
TABS,ioos:station:wmo:42043:1,2014-04-20T22:30:00Z,28.9818,-94.9186,-2.0,18.66,11111222 
TABS,ioos:station:wmo:42043:1,2014-04-20T23:00:00Z,28.9818,-94.9186,-2.0,18.66,11111222 
TABS,ioos:station:wmo:42043:1,2014-04-20T23:30:00Z,28.9818,-94.9186,-2.0,18.64,11111222 
TABS,ioos:station:wmo:42043:1,2014-04-21T00:00:00Z,28.9818,-94.9186,-2.0,18.63,11111222 
TABS,ioos:station:wmo:42043:1,2014-04-21T00:30:00Z,28.9818,-94.9186,-2.0,18.61,11111222 
TABS,ioos:station:wmo:42043:1,2014-04-21T01:00:00Z,28.9818,-94.9186,-2.0,18.6,11111222 
TABS,ioos:station:wmo:42043:1,2014-04-21T01:30:00Z,28.9818,-94.9186,-2.0,18.55,11111222 
TABS,ioos:station:wmo:42043:1,2014-04-21T02:00:00Z,28.9818,-94.9186,-2.0,18.49,11111222 
TABS,ioos:station:wmo:42043:1,2014-04-21T02:30:00Z,28.9818,-94.9186,-2.0,18.45,11111222 
TABS,ioos:station:wmo:42043:1,2014-04-21T03:00:00Z,28.9818,-94.9186,-2.0,18.4,11111222 
TABS,ioos:station:wmo:42043:1,2014-04-21T03:30:00Z,28.9818,-94.9186,-2.0,18.33,11111222 
TABS,ioos:station:wmo:42043:1,2014-04-21T04:00:00Z,28.9818,-94.9186,-2.0,18.32,11111222 
TABS,ioos:station:wmo:42043:1,2014-04-21T04:30:00Z,28.9818,-94.9186,-2.0,18.38,11111222 
TABS,ioos:station:wmo:42043:1,2014-04-21T05:00:00Z,28.9818,-94.9186,-2.0,18.41,11111222 
TABS,ioos:station:wmo:42043:1,2014-04-21T05:30:00Z,28.9818,-94.9186,-2.0,18.37,11111222 
TABS,ioos:station:wmo:42043:1,2014-04-21T06:00:00Z,28.9818,-94.9186,-2.0,18.33,11111222 
TABS,ioos:station:wmo:42043:1,2014-04-21T06:30:00Z,28.9818,-94.9186,-2.0,18.3,11111222 
TABS,ioos:station:wmo:42043:1,2014-04-21T07:00:00Z,28.9818,-94.9186,-2.0,18.27,11111222 
TABS,ioos:station:wmo:42043:1,2014-04-21T07:30:00Z,28.9818,-94.9186,-2.0,18.29,11111222 
TABS,ioos:station:wmo:42043:1,2014-04-21T08:00:00Z,28.9818,-94.9186,-2.0,18.21,11111222 
TABS,ioos:station:wmo:42043:1,2014-04-21T08:30:00Z,28.9818,-94.9186,-2.0,18.13,11111222 
TABS,ioos:station:wmo:42043:1,2014-04-21T09:00:00Z,28.9818,-94.9186,-2.0,18.1,11111222 
TABS,ioos:station:wmo:42043:1,2014-04-21T09:30:00Z,28.9818,-94.9186,-2.0,18.04,11111222 
TABS,ioos:station:wmo:42043:1,2014-04-21T10:00:00Z,28.9818,-94.9186,-2.0,18.01,11111222 
TABS,ioos:station:wmo:42043:1,2014-04-21T10:30:00Z,28.9818,-94.9186,-2.0,18.01,11111222 
TABS,ioos:station:wmo:42043:1,2014-04-21T11:00:00Z,28.9818,-94.9186,-2.0,18.06,11111222 
TABS,ioos:station:wmo:42043:1,2014-04-21T11:30:00Z,28.9818,-94.9186,-2.0,18.11,11111222 
TABS,ioos:station:wmo:42043:1,2014-04-21T12:00:00Z,28.9818,-94.9186,-2.0,18.13,11111222 
TABS,ioos:station:wmo:42043:1,2014-04-21T12:30:00Z,28.9818,-94.9186,-2.0,18.1,11111222 
TABS,ioos:station:wmo:42043:1,2014-04-21T13:00:00Z,28.9818,-94.9186,-2.0,18.15,11111222 
TABS,ioos:station:wmo:42043:1,2014-04-21T13:30:00Z,28.9818,-94.9186,-2.0,18.25,11111222 
TABS,ioos:station:wmo:42043:1,2014-04-21T14:00:00Z,28.9818,-94.9186,-2.0,18.23,11111222 
TABS,ioos:station:wmo:42043:1,2014-04-21T14:30:00Z,28.9818,-94.9186,-2.0,18.23,11111222 
TABS,ioos:station:wmo:42043:1,2014-04-21T15:00:00Z,28.9818,-94.9186,-2.0,18.21,11111222 
TABS,ioos:station:wmo:42043:1,2014-04-21T15:30:00Z,28.9818,-94.9186,-2.0,18.18,11111222 
TABS,ioos:station:wmo:42043:1,2014-04-21T16:00:00Z,28.9818,-94.9186,-2.0,18.22,11111222 
TABS,ioos:station:wmo:42043:1,2014-04-21T16:30:00Z,28.9818,-94.9186,-2.0,18.25,11111222 
TABS,ioos:station:wmo:42043:1,2014-04-21T17:00:00Z,28.9818,-94.9186,-2.0,18.32,11111222 
TABS,ioos:station:wmo:42043:1,2014-04-21T17:30:00Z,28.9818,-94.9186,-2.0,18.34,11111222 
TABS,ioos:station:wmo:42043:1,2014-04-21T18:00:00Z,28.9818,-94.9186,-2.0,18.29,11111222 
TABS,ioos:station:wmo:42043:1,2014-04-21T18:30:00Z,28.9818,-94.9186,-2.0,18.2,11111222 
TABS,ioos:station:wmo:42043:1,2014-04-21T19:00:00Z,28.9818,-94.9186,-2.0,18.14,11111222 
TABS,ioos:station:wmo:42043:1,2014-04-21T19:30:00Z,28.9818,-94.9186,-2.0,18.31,11111222 
TABS,ioos:station:wmo:42043:1,2014-04-21T20:00:00Z,28.9818,-94.9186,-2.0,18.46,11111222 
TABS,ioos:station:wmo:42043:1,2014-04-21T20:30:00Z,28.9818,-94.9186,-2.0,18.34,11111222 
TABS,ioos:station:wmo:42043:1,2014-04-21T21:00:00Z,28.9818,-94.9186,-2.0,18.27,11111222 
TABS,ioos:station:wmo:42043:1,2014-04-21T21:30:00Z,28.9818,-94.9186,-2.0,18.38,11111222 
TABS,ioos:station:wmo:42043:1,2014-04-21T22:00:00Z,28.9818,-94.9186,-2.0,18.63,11111222 
TABS,ioos:station:wmo:42043:1,2014-04-21T22:30:00Z,28.9818,-94.9186,-2.0,18.67,11111222 
TABS,ioos:station:wmo:42043:1,2014-04-21T23:00:00Z,28.9818,-94.9186,-2.0,18.61,11111222 
TABS,ioos:station:wmo:42043:1,2014-04-21T23:30:00Z,28.9818,-94.9186,-2.0,18.52,11111222 
TABS,ioos:station:wmo:42043:1,2014-04-22T00:00:00Z,28.9818,-94.9186,-2.0,18.62,11111222 
TABS,ioos:station:wmo:42043:1,2014-04-22T00:30:00Z,28.9818,-94.9186,-2.0,18.69,11111222 
TABS,ioos:station:wmo:42043:1,2014-04-22T01:00:00Z,28.9818,-94.9186,-2.0,18.74,11111222 
TABS,ioos:station:wmo:42043:1,2014-04-22T01:30:00Z,28.9818,-94.9186,-2.0,18.67,11111222 
TABS,ioos:station:wmo:42043:1,2014-04-22T02:00:00Z,28.9818,-94.9186,-2.0,18.63,11111222 
TABS,ioos:station:wmo:42043:1,2014-04-22T02:30:00Z,28.9818,-94.9186,-2.0,18.57,11111222 
TABS,ioos:station:wmo:42043:1,2014-04-22T03:00:00Z,28.9818,-94.9186,-2.0,18.55,11111222 
TABS,ioos:station:wmo:42043:1,2014-04-22T03:30:00Z,28.9818,-94.9186,-2.0,18.54,11111222 
TABS,ioos:station:wmo:42043:1,2014-04-22T04:00:00Z,28.9818,-94.9186,-2.0,18.54,11111222 
TABS,ioos:station:wmo:42043:1,2014-04-22T04:30:00Z,28.9818,-94.9186,-2.0,18.54,11111222 
TABS,ioos:station:wmo:42043:1,2014-04-22T05:00:00Z,28.9818,-94.9186,-2.0,18.52,11111222 
TABS,ioos:station:wmo:42043:1,2014-04-22T05:30:00Z,28.9818,-94.9186,-2.0,18.51,11111222 
TABS,ioos:station:wmo:42043:1,2014-04-22T06:00:00Z,28.9818,-94.9186,-2.0,18.5,11111222 
TABS,ioos:station:wmo:42043:1,2014-04-22T06:30:00Z,28.9818,-94.9186,-2.0,18.49,11111222 
TABS,ioos:station:wmo:42043:1,2014-04-22T07:00:00Z,28.9818,-94.9186,-2.0,18.49,11111222 
TABS,ioos:station:wmo:42043:1,2014-04-22T07:30:00Z,28.9818,-94.9186,-2.0,18.48,11111222 
TABS,ioos:station:wmo:42043:1,2014-04-22T08:00:00Z,28.9818,-94.9186,-2.0,18.48,11111222 
TABS,ioos:station:wmo:42043:1,2014-04-22T08:30:00Z,28.9818,-94.9186,-2.0,18.48,11111222 
TABS,ioos:station:wmo:42043:1,2014-04-22T09:00:00Z,28.9818,-94.9186,-2.0,18.48,11111222 
TABS,ioos:station:wmo:42043:1,2014-04-22T09:30:00Z,28.9818,-94.9186,-2.0,18.48,11111222 
TABS,ioos:station:wmo:42043:1,2014-04-22T10:00:00Z,28.9818,-94.9186,-2.0,18.48,11111222 
TABS,ioos:station:wmo:42043:1,2014-04-22T10:30:00Z,28.9818,-94.9186,-2.0,18.48,11111222 
TABS,ioos:station:wmo:42043:1,2014-04-22T11:00:00Z,28.9818,-94.9186,-2.0,18.49,11111222 
TABS,ioos:station:wmo:42043:1,2014-04-22T11:30:00Z,28.9818,-94.9186,-2.0,18.48,11111222 
TABS,ioos:station:wmo:42043:1,2014-04-22T12:00:00Z,28.9818,-94.9186,-2.0,18.49,11111222 
TABS,ioos:station:wmo:42043:1,2014-04-22T12:30:00Z,28.9818,-94.9186,-2.0,18.5,11111222 
TABS,ioos:station:wmo:42043:1,2014-04-22T13:00:00Z,28.9818,-94.9186,-2.0,18.52,11111222 
TABS,ioos:station:wmo:42043:1,2014-04-22T13:30:00Z,28.9818,-94.9186,-2.0,18.55,11111222 
TABS,ioos:station:wmo:42043:1,2014-04-22T14:00:00Z,28.9818,-94.9186,-2.0,18.56,11111222 